Location: Unspecified
(50.7693°N, 0.0000°E)
Time: 08:50:53
(UTC+00:00)

Transit 2A - Pass Details

Date: 01 July 2019
Orbit: 597 x 962 km, 66.7° (Epoch: 24 August)

Event Time Altitude Azimuth Distance (km) Brightness Sun altitude
Rises 07:27:12 0° 318° (NW) 3,422 9.0 30.7°
Reaches altitude 10° 07:29:58 10° 310° (NW) 2,422 8.3 31.2°
Maximum altitude 07:34:53 34° 247° (WSW) 1,250 7.0 32.0°
Drops below altitude 10° 07:39:21 10° 184° (S) 2,187 8.5 32.7°
Sets 07:41:44 0° 175° (S) 3,044 9.2 33.0°
